Other Public Products
Issued by NWS Grand Forks, ND

Home | Current Version | Previous Version | Graphics & Text | Print | Product List | Glossary On
Versions: 1 2 3 4 5 6 7 8 9 10 11 12 13 14 15 16 17 18 19 20 21 22 23 24 25 26 27 28 29 30 31 32 33 34 35 36 37 38 39 40 41 42 43 44 45 46 47 48 49 50
000
FPUS83 KFGF 292010
OPUFGF
PRAIRIE TO PINES WEATHER ROUNDUP
NATIONAL WEATHER SERVICE EASTERN NORTH DAKOTA/GRAND FORKS ND
300 PM CDT WED MAR 29 2017

 **SATELLITE DATA USED TO AUGMENT SKY COVER AT AUTOMATED STATIONS**
 *****  WEATHER ACROSS EASTERN NORTH DAKOTA  *****

CITY           SKY/WX    TMP DP  RH WIND       PRES   REMARKS
GRAND FORKS    FAIR      60  46  59 S12       30.07F
GRAND FORKS AF FAIR      60  44  54 S13       30.07F
GRAND CITY NWS NOT AVBL
BUXTON         NOT AVBL
DEVILS LAKE    CLOUDY    56  39  53 S14       30.03F
FARGO          FAIR      61  40  45 S17       30.10F
WAHPETON ARPT  FAIR      57  36  44 SE10      30.11F
$$

 *****  WEATHER ACROSS CENTRAL AND WESTERN NORTH DAKOTA  *****

CITY           SKY/WX    TMP DP  RH WIND       PRES   REMARKS
JAMESTOWN      FAIR      62  35  36 S18       30.04F
BISMARCK       CLOUDY    61  39  44 S15       30.01F
MINOT          FAIR      60  41  49 SW22      29.94F
MINOT AFB      FAIR      57  45  64 SW15      29.93F
GARRISON         N/A     58  42  55 S10       29.96F
WILLISTON      FAIR      62  32  32 W16       29.93F
DICKINSON      FAIR      60  30  32 SW14G23   29.94F
HETTINGER      FAIR      59  38  45 VRB7      30.00F
$$

 *****  OTHER OBSERVATIONS NORTHEAST NORTH DAKOTA  *****

CITY           SKY/WX    TMP DP  RH WIND       PRES   REMARKS
WALHALLA       NOT AVBL
LANGDON        FAIR      52  45  76 S13       30.03F
CAVALIER       FAIR      55  46  71 SE12      30.04F
GRAFTON        FAIR      59  48  67 SE14      30.08F
CANDO          NOT AVBL
FORT TOTTEN      N/A     58  38  48 S10       29.95S
ROLLA          FAIR      46  45  93 S16       29.99F
RUGBY          NOT AVBL
 ***** THE ABOVE OBSERVATIONS ARE NON NWS ARE NOT QUALITY
        CONTROLLED AND MAY MIS-REPORT RAIN FOR SNOW...
$$

 *****  OTHER OBSERVATIONS SOUTHEAST NORTH DAKOTA *****

CITY           SKY/WX    TMP DP  RH WIND       PRES   REMARKS
COOPERSTOWN    FAIR      59  41  51 S15G23    30.05F
VALLEY CITY    FAIR      61  34  36 S14G22    30.07F
OAKES          NOT AVBL
GWINNER        CLEAR     61  32  33 MISG      30.07F
SHEYENNE NWR     N/A     62  32  32 S14       29.95S
BUFFALO        NOT AVBL
WYNDMERE       NOT AVBL
 ***** THE ABOVE OBSERVATIONS ARE NON NWS ARE NOT QUALITY
       CONTROLLED AND MAY MIS-REPORT RAIN FOR SNOW...
$$

  *****  WEATHER ACROSS NORTHERN MINNESOTA  *****

CITY           SKY/WX    TMP DP  RH WIND       PRES   REMARKS
FLAG ISLAND    FAIR      43  28  56 SE3       30.12F
WARROAD        FAIR      52  37  58 E3        30.11F
ROSEAU         FAIR      61  43  51 S14       30.09F
HALLOCK        FAIR      57  48  72 S13G21    30.08F
THF RVR FALLS  FAIR      59  36  42 S15       30.10F
HALSTAD          N/A     60  43  53 S14         N/A
FOSSTON        FAIR      61  32  33 S12       30.12F
BAUDETTE       FAIR      58  32  37 S13       30.13F
WASKISH        FAIR      59  34  38 SE9       30.14F
CROOKSTON      FAIR      61  43  51 S12       30.10F
$$
  *****  WEATHER ACROSS CENTRAL AND WEST MINNESOTA  *****

CITY           SKY/WX    TMP DP  RH WIND       PRES   REMARKS
BEMIDJI        FAIR      54  32  43 SE9       30.15F
PARK RAPIDS    FAIR      54  30  40 SE12      30.15F
WADENA         FAIR      54  36  50 S6        30.15F
DETROIT LAKES  FAIR      55  32  41 SE10      30.14F
MOORHEAD       FAIR      57  43  58 S15       30.12F
FERGUS FALLS   FAIR      57  36  44 SE12      30.15F
ELBOW LAKE     FAIR      57  35  44 SE10      30.13F
MORRIS MN      FAIR      57  32  38 SE15      30.11F
STAPLES        FAIR      52  30  43 E7        30.17S
WHEATON        FAIR      57  34  41 SE10G17   30.13F
$$
  *****  WEATHER ELSEWHERE ACROSS MINNESOTA  *****

CITY           SKY/WX    TMP DP  RH WIND       PRES   REMARKS
DULUTH         FAIR      38  31  76 E14       30.24F
INTRNTL FALLS  FAIR      52  30  43 SE13      30.18F
ELY            FAIR      43  27  52 SE13      30.24F
CLOQUET        FAIR      37  30  75 E8        30.24F
BRAINERD       FAIR      48  32  53 E6        30.18F
HIBBING        FAIR      44  30  57 SE9       30.22F
ALEXANDRIA     FAIR      53  34  48 SE10      30.14F
SAINT CLOUD    FAIR      51  33  50 S8        30.17F
MINNEAPOLIS    CLOUDY    50  34  54 SE15G21   30.20F
$$

  *****  WEATHER ACROSS SOUTH DAKOTA  *****

CITY           SKY/WX    TMP DP  RH WIND       PRES   REMARKS
SIOUX FALLS    CLOUDY    50  36  58 E22G36    30.06F
BROOKINGS      PTSUNNY   51  36  56 SE20      30.08F
WATERTOWN      FAIR      55  30  38 SE14G23   30.09F
HURON          PTSUNNY   56  36  47 SE10G17   30.06F
SISSETON         N/A     59  35  40 S15       30.09F
ABERDEEN       FAIR      61  31  32 S13G18    30.07F
MITCHELL       CLOUDY    52  36  54 E17       30.08F
PIERRE         CLOUDY    61  35  37 SE16G23   30.01F
MOBRIDGE       FAIR      63  29  27 S8        30.01F
RAPID CITY     FAIR      55  40  56 VRB3      30.02F
$$

  *****  SOME WEATHER IN NEARBY STATES *****

CITY           SKY/WX    TMP DP  RH WIND       PRES   REMARKS
GLASGOW MT     FAIR      57  27  31 W16       29.93F
GREAT FALLS MT CLOUDY    45  38  76 S13       29.92F
CHEYENNE WY    PTSUNNY   49  27  42 N18G26    30.03F
SCOTTSBLUFF NE PTSUNNY   56  37  49 N10       30.01F
OMAHA NE       RAIN      43  39  86 NE17      29.91F FOG
DES MOINES IA  RAIN      45  42  89 E18G26    29.89F FOG
DAVENPORT IA   CLOUDY    48  39  71 E25G35    30.03F
CHICAGO IL     CLOUDY    45  35  68 NE13      30.19F
EAU CLAIRE WI  CLOUDY    50  33  52 SE10      30.22F
LA CROSSE WI   CLOUDY    47  37  68 VRB5      30.20F
$$

  *****  SOME NATIONAL WEATHER *****

CITY           SKY/WX    TMP DP  RH WIND       PRES   REMARKS
LA GUARDIA NY  FAIR      58  29  33 NW15      30.03S
RALEIGH NC     PTSUNNY   72  51  47 VRB3      30.05F
ATLANTA GA     FAIR      80  56  43 CALM      30.01F
NEW ORLEANS LA FAIR      82  66  58 S15       29.93F
OKLAHOMA CITY  PTSUNNY   59  51  75 W16       29.71S
ALBUQUERQUE NM PTSUNNY   59  34  39 W8        29.98F
SALT LAKE CITY FAIR      54  29  38 E3        30.19F
LOS ANGELES CA FAIR      72  49  44 W12       30.04F
BOISE ID       CLOUDY    59  35  40 SE10      30.09F
SEATTLE WA     LGT RAIN  54  48  80 SW21G33   29.84R
$$

*** WEATHER ACROSS MANITOBA...SASKATCHEWAN AND ONTARIO ***
                ***ONTARIO***

CITY           SKY/WX    TMP DP  RH WIND       PRES   REMARKS
GERALDTON      MOSUNNY   39  16  38 VRB3      30.36F
THUNDER BAY    CLOUDY    36  25  64 E10       30.38F
SIOUX LOOKOUT  CLOUDY    45  23  42 S8        30.21F
TORONTO        PTSUNNY   46  27  46 SE12      30.26R
BIG TROUT LK   PTSUNNY   36  19  51 SE8       30.29F
PICKLE LAKE    CLOUDY    37  19  48 SE14      30.27F
DRYDEN         PTSUNNY   48  28  46 SE13      30.18F
KENORA         PTSUNNY   52  28  40 SE10G17   30.12F
$$
                *** MANITOBA***

CITY           SKY/WX    TMP DP  RH WIND       PRES   REMARKS
BRANDON        CLOUDY    45  41  87 S6        29.97F
DAUPHIN        MOSUNNY   41  34  75 E5        29.95F
ISLAND LAKE    NOT AVBL
PILOT MOUND      N/A     46  43  87 S9          N/A
THE PAS        CLOUDY    36  30  80 SE9       29.94F
THOMPSON       PTSUNNY   41  18  38 SE7       30.07F
WINNIPEG       CLOUDY    54  43  66 S15       30.03F
LYNN LAKE      MOSUNNY   37  27  65 SE12      29.99F
CHURCHILL      PTSUNNY   27  19  74 SE10      30.21F WCI  17
GILLAM         MOSUNNY   43  19  39 SE9       30.16F
$$
                ***SASKATCHEWAN***

CITY           SKY/WX    TMP DP  RH WIND       PRES   REMARKS
ESTEVAN        PTSUNNY   57  34  41 SW16G23   29.90F
KINDERSLEY     PTSUNNY   55  28  35 NW6       29.80F
LLOYDMINSTER   CLOUDY    37  37 100 W3        29.83F FOG
PRINCE ALBERT  CLOUDY    37  34  87 E7        29.84F
REGINA         MOSUNNY   57  32  38 SW10G18   29.82F
YORKTON        SUNNY     46  41  81 SE12G17   29.84F



USA.gov is the U.S. government's official web portal to all federal, state and local government web resources and services.